Terminal Aerodrome Forecast
Issued by NWS Goodland, KS

Home | Current Version | Previous Version | Text Only | Print | Product List | Glossary On
Versions: 1 2 3 4 5 6 7 8 9 10 11 12 13 14 15 16 17 18 19 20 21 22 23
530
FTUS43 KGLD 270810 AAC
TAFGLD
TAF AMD
KGLD 270810Z 2708/2806 VRB03KT 6SM BR SCT003
      TEMPO 2708/2711 4SM BR OVC002
     FM271100 20005KT 1SM BR VV002
      TEMPO 2712/2714 1/2SM FG VV002
     FM271400 23004KT 3SM BR SCT005 SCT200
     FM271600 19005KT P6SM SCT200
     FM272100 15008KT P6SM SCT060 BKN150=

USA.gov is the U.S. government's official web portal to all federal, state and local government web resources and services.